owner,sensor,date,latitude,longitude,vertical_datum,wind_speed,wind_to_direction,wind_speed_of_gust,qcFlag 
ADCP,ioos:station:wmo:42887:1,2014-06-01T00:00:00Z,28.1910,-88.4960,48.2,5.6,117.0,99.0,'11111222,11111222,11144222' 
ADCP,ioos:station:wmo:42887:1,2014-06-01T00:20:00Z,28.1910,-88.4960,48.2,6.7,109.0,99.0,'11111222,11111222,11144222' 
ADCP,ioos:station:wmo:42887:1,2014-06-01T00:40:00Z,28.1910,-88.4960,48.2,5.6,120.0,99.0,'11111222,11111222,11144222' 
ADCP,ioos:station:wmo:42887:1,2014-06-01T01:00:00Z,28.1910,-88.4960,48.2,6.4,130.0,99.0,'11111222,11111222,11144222' 
ADCP,ioos:station:wmo:42887:1,2014-06-01T01:20:00Z,28.1910,-88.4960,48.2,5.9,130.0,99.0,'11111222,11111222,11144222' 
ADCP,ioos:station:wmo:42887:1,2014-06-01T01:40:00Z,28.1910,-88.4960,48.2,5.6,125.0,99.0,'11111222,11111222,11144222' 
ADCP,ioos:station:wmo:42887:1,2014-06-01T02:00:00Z,28.1910,-88.4960,48.2,3.3,124.0,99.0,'11111222,11111222,11144222' 
ADCP,ioos:station:wmo:42887:1,2014-06-01T02:20:00Z,28.1910,-88.4960,48.2,4.2,129.0,99.0,'11111222,11111222,11144222' 
ADCP,ioos:station:wmo:42887:1,2014-06-01T02:40:00Z,28.1910,-88.4960,48.2,4.5,129.0,99.0,'11111222,11111222,11144222' 
ADCP,ioos:station:wmo:42887:1,2014-06-01T03:00:00Z,28.1910,-88.4960,48.2,5.7,118.0,99.0,'11111222,11111222,11144222' 
ADCP,ioos:station:wmo:42887:1,2014-06-01T03:20:00Z,28.1910,-88.4960,48.2,5.0,124.0,99.0,'11111222,11111222,11144222' 
ADCP,ioos:station:wmo:42887:1,2014-06-01T03:40:00Z,28.1910,-88.4960,48.2,4.7,122.0,99.0,'11111222,11111222,11144222' 
ADCP,ioos:station:wmo:42887:1,2014-06-01T04:00:00Z,28.1910,-88.4960,48.2,4.5,115.0,99.0,'11111222,11111222,11144222' 
ADCP,ioos:station:wmo:42887:1,2014-06-01T04:20:00Z,28.1910,-88.4960,48.2,6.4,100.0,99.0,'11111222,11111222,11144222' 
ADCP,ioos:station:wmo:42887:1,2014-06-01T04:40:00Z,28.1910,-88.4960,48.2,5.5,109.0,99.0,'11111222,11111222,11144222' 
ADCP,ioos:station:wmo:42887:1,2014-06-01T05:00:00Z,28.1910,-88.4960,48.2,5.8,104.0,99.0,'11111222,11111222,11144222' 
ADCP,ioos:station:wmo:42887:1,2014-06-01T05:20:00Z,28.1910,-88.4960,48.2,5.7,105.0,99.0,'11111222,11111222,11144222' 
ADCP,ioos:station:wmo:42887:1,2014-06-01T05:40:00Z,28.1910,-88.4960,48.2,6.4,109.0,99.0,'11111222,11111222,11144222' 
ADCP,ioos:station:wmo:42887:1,2014-06-01T06:00:00Z,28.1910,-88.4960,48.2,7.6,105.0,99.0,'11111222,11111222,11144222' 
ADCP,ioos:station:wmo:42887:1,2014-06-01T06:20:00Z,28.1910,-88.4960,48.2,6.3,109.0,99.0,'11111222,11111222,11144222' 
ADCP,ioos:station:wmo:42887:1,2014-06-01T06:40:00Z,28.1910,-88.4960,48.2,4.4,108.0,99.0,'11111222,11111222,11144222' 
ADCP,ioos:station:wmo:42887:1,2014-06-01T07:00:00Z,28.1910,-88.4960,48.2,5.2,107.0,99.0,'11111222,11111222,11144222' 
ADCP,ioos:station:wmo:42887:1,2014-06-01T07:20:00Z,28.1910,-88.4960,48.2,5.5,104.0,99.0,'11111222,11111222,11144222' 
ADCP,ioos:station:wmo:42887:1,2014-06-01T07:40:00Z,28.1910,-88.4960,48.2,5.6,105.0,99.0,'11111222,11111222,11144222' 
ADCP,ioos:station:wmo:42887:1,2014-06-01T08:00:00Z,28.1910,-88.4960,48.2,4.7,102.0,99.0,'11111222,11111222,11144222' 
ADCP,ioos:station:wmo:42887:1,2014-06-01T08:20:00Z,28.1910,-88.4960,48.2,6.2,97.0,99.0,'11111222,11111222,11144222' 
ADCP,ioos:station:wmo:42887:1,2014-06-01T08:40:00Z,28.1910,-88.4960,48.2,6.3,96.0,99.0,'11111222,11111222,11144222' 
ADCP,ioos:station:wmo:42887:1,2014-06-01T09:00:00Z,28.1910,-88.4960,48.2,6.5,97.0,99.0,'11111222,11111222,11144222' 
ADCP,ioos:station:wmo:42887:1,2014-06-01T09:20:00Z,28.1910,-88.4960,48.2,6.3,98.0,99.0,'11111222,11111222,11144222' 
ADCP,ioos:station:wmo:42887:1,2014-06-01T09:40:00Z,28.1910,-88.4960,48.2,6.9,99.0,99.0,'11111222,11111222,11144222' 
ADCP,ioos:station:wmo:42887:1,2014-06-01T10:00:00Z,28.1910,-88.4960,48.2,6.1,103.0,99.0,'11111222,11111222,11144222' 
ADCP,ioos:station:wmo:42887:1,2014-06-01T10:20:00Z,28.1910,-88.4960,48.2,6.5,100.0,99.0,'11111222,11111222,11144222' 
ADCP,ioos:station:wmo:42887:1,2014-06-01T10:40:00Z,28.1910,-88.4960,48.2,6.1,97.0,99.0,'11111222,11111222,11144222' 
ADCP,ioos:station:wmo:42887:1,2014-06-01T11:00:00Z,28.1910,-88.4960,48.2,6.3,99.0,99.0,'11111222,11111222,11144222' 
ADCP,ioos:station:wmo:42887:1,2014-06-01T11:20:00Z,28.1910,-88.4960,48.2,6.4,95.0,99.0,'11111222,11111222,11144222' 
ADCP,ioos:station:wmo:42887:1,2014-06-01T11:40:00Z,28.1910,-88.4960,48.2,6.6,94.0,99.0,'11111222,11111222,11144222' 
ADCP,ioos:station:wmo:42887:1,2014-06-01T12:00:00Z,28.1910,-88.4960,48.2,6.7,94.0,99.0,'11111222,11111222,11144222' 
ADCP,ioos:station:wmo:42887:1,2014-06-01T12:20:00Z,28.1910,-88.4960,48.2,7.0,99.0,99.0,'11111222,11111222,11144222' 
ADCP,ioos:station:wmo:42887:1,2014-06-01T12:40:00Z,28.1910,-88.4960,48.2,6.7,99.0,99.0,'11111222,11111222,11144222' 
ADCP,ioos:station:wmo:42887:1,2014-06-01T13:00:00Z,28.1910,-88.4960,48.2,6.8,100.0,99.0,'11111222,11111222,11144222' 
ADCP,ioos:station:wmo:42887:1,2014-06-01T13:20:00Z,28.1910,-88.4960,48.2,6.7,104.0,99.0,'11111222,11111222,11144222' 
ADCP,ioos:station:wmo:42887:1,2014-06-01T13:40:00Z,28.1910,-88.4960,48.2,5.8,103.0,99.0,'11111222,11111222,11144222' 
ADCP,ioos:station:wmo:42887:1,2014-06-01T14:00:00Z,28.1910,-88.4960,48.2,9.9,153.0,99.0,'11111222,11111222,11144222' 
ADCP,ioos:station:wmo:42887:1,2014-06-01T14:20:00Z,28.1910,-88.4960,48.2,9.1,150.0,99.0,'11111222,11111222,11144222' 
ADCP,ioos:station:wmo:42887:1,2014-06-01T14:40:00Z,28.1910,-88.4960,48.2,9.4,131.0,99.0,'11111222,11111222,11144222' 
ADCP,ioos:station:wmo:42887:1,2014-06-01T15:00:00Z,28.1910,-88.4960,48.2,6.7,123.0,99.0,'11111222,11111222,11144222' 
ADCP,ioos:station:wmo:42887:1,2014-06-01T15:20:00Z,28.1910,-88.4960,48.2,5.7,118.0,99.0,'11111222,11111222,11144222' 
ADCP,ioos:station:wmo:42887:1,2014-06-01T15:40:00Z,28.1910,-88.4960,48.2,3.4,110.0,99.0,'11111222,11111222,11144222' 
ADCP,ioos:station:wmo:42887:1,2014-06-01T16:00:00Z,28.1910,-88.4960,48.2,3.6,111.0,99.0,'11111222,11111222,11144222' 
ADCP,ioos:station:wmo:42887:1,2014-06-01T16:20:00Z,28.1910,-88.4960,48.2,5.2,137.0,99.0,'11111222,11111222,11144222' 
ADCP,ioos:station:wmo:42887:1,2014-06-01T16:40:00Z,28.1910,-88.4960,48.2,4.8,124.0,99.0,'11111222,11111222,11144222' 
ADCP,ioos:station:wmo:42887:1,2014-06-01T17:00:00Z,28.1910,-88.4960,48.2,5.1,119.0,99.0,'11111222,11111222,11144222' 
ADCP,ioos:station:wmo:42887:1,2014-06-01T17:20:00Z,28.1910,-88.4960,48.2,4.8,120.0,99.0,'11111222,11111222,11144222' 
ADCP,ioos:station:wmo:42887:1,2014-06-01T17:40:00Z,28.1910,-88.4960,48.2,4.7,115.0,99.0,'11111222,11111222,11144222' 
ADCP,ioos:station:wmo:42887:1,2014-06-01T18:00:00Z,28.1910,-88.4960,48.2,4.8,104.0,99.0,'11111222,11111222,11144222' 
ADCP,ioos:station:wmo:42887:1,2014-06-01T18:20:00Z,28.1910,-88.4960,48.2,5.1,85.0,99.0,'11111222,11111222,11144222' 
ADCP,ioos:station:wmo:42887:1,2014-06-01T18:40:00Z,28.1910,-88.4960,48.2,4.8,86.0,99.0,'11111222,11111222,11144222' 
ADCP,ioos:station:wmo:42887:1,2014-06-01T19:00:00Z,28.1910,-88.4960,48.2,5.4,95.0,99.0,'11111222,11111222,11144222' 
ADCP,ioos:station:wmo:42887:1,2014-06-01T19:20:00Z,28.1910,-88.4960,48.2,4.6,96.0,99.0,'11111222,11111222,11144222' 
ADCP,ioos:station:wmo:42887:1,2014-06-01T19:40:00Z,28.1910,-88.4960,48.2,5.3,101.0,99.0,'11111222,11111222,11144222' 
ADCP,ioos:station:wmo:42887:1,2014-06-01T20:00:00Z,28.1910,-88.4960,48.2,6.3,104.0,99.0,'11111222,11111222,11144222' 
ADCP,ioos:station:wmo:42887:1,2014-06-01T20:20:00Z,28.1910,-88.4960,48.2,6.1,100.0,99.0,'11111222,11111222,11144222' 
ADCP,ioos:station:wmo:42887:1,2014-06-01T20:40:00Z,28.1910,-88.4960,48.2,5.1,100.0,99.0,'11111222,11111222,11144222' 
ADCP,ioos:station:wmo:42887:1,2014-06-01T21:00:00Z,28.1910,-88.4960,48.2,5.3,93.0,99.0,'11111222,11111222,11144222' 
ADCP,ioos:station:wmo:42887:1,2014-06-01T21:20:00Z,28.1910,-88.4960,48.2,4.0,86.0,99.0,'11111222,11111222,11144222' 
ADCP,ioos:station:wmo:42887:1,2014-06-01T21:40:00Z,28.1910,-88.4960,48.2,5.5,84.0,99.0,'11111222,11111222,11144222' 
ADCP,ioos:station:wmo:42887:1,2014-06-01T22:00:00Z,28.1910,-88.4960,48.2,6.1,88.0,99.0,'11111222,11111222,11144222' 
ADCP,ioos:station:wmo:42887:1,2014-06-01T22:20:00Z,28.1910,-88.4960,48.2,5.6,106.0,99.0,'11111222,11111222,11144222' 
ADCP,ioos:station:wmo:42887:1,2014-06-01T22:40:00Z,28.1910,-88.4960,48.2,6.9,112.0,99.0,'11111222,11111222,11144222' 
ADCP,ioos:station:wmo:42887:1,2014-06-01T23:00:00Z,28.1910,-88.4960,48.2,6.0,114.0,99.0,'11111222,11111222,11144222' 
ADCP,ioos:station:wmo:42887:1,2014-06-01T23:20:00Z,28.1910,-88.4960,48.2,5.9,118.0,99.0,'11111222,11111222,11144222' 
ADCP,ioos:station:wmo:42887:1,2014-06-01T23:40:00Z,28.1910,-88.4960,48.2,4.4,117.0,99.0,'11111222,11111222,11144222' 
ADCP,ioos:station:wmo:42887:1,2014-06-02T00:00:00Z,28.1910,-88.4960,48.2,3.9,111.0,99.0,'11111222,11111222,11144222' 
ADCP,ioos:station:wmo:42887:1,2014-06-02T00:20:00Z,28.1910,-88.4960,48.2,3.3,128.0,99.0,'11111222,11111222,11144222' 
ADCP,ioos:station:wmo:42887:1,2014-06-02T00:40:00Z,28.1910,-88.4960,48.2,2.9,129.0,99.0,'11111222,11111222,11144222' 
ADCP,ioos:station:wmo:42887:1,2014-06-02T01:00:00Z,28.1910,-88.4960,48.2,3.4,129.0,99.0,'11111222,11111222,11144222' 
ADCP,ioos:station:wmo:42887:1,2014-06-02T01:20:00Z,28.1910,-88.4960,48.2,2.9,129.0,99.0,'11111222,11111222,11144222' 
ADCP,ioos:station:wmo:42887:1,2014-06-02T01:40:00Z,28.1910,-88.4960,48.2,3.1,129.0,99.0,'11111222,11111222,11144222' 
ADCP,ioos:station:wmo:42887:1,2014-06-02T02:00:00Z,28.1910,-88.4960,48.2,3.2,129.0,99.0,'11111222,11111222,11144222' 
ADCP,ioos:station:wmo:42887:1,2014-06-02T02:20:00Z,28.1910,-88.4960,48.2,3.9,123.0,99.0,'11111222,11111222,11144222' 
ADCP,ioos:station:wmo:42887:1,2014-06-02T02:40:00Z,28.1910,-88.4960,48.2,3.2,120.0,99.0,'11111222,11111222,11144222' 
ADCP,ioos:station:wmo:42887:1,2014-06-02T03:00:00Z,28.1910,-88.4960,48.2,3.8,119.0,99.0,'11111222,11111222,11144222' 
ADCP,ioos:station:wmo:42887:1,2014-06-02T03:20:00Z,28.1910,-88.4960,48.2,3.0,119.0,99.0,'11111222,11111222,11144222' 
ADCP,ioos:station:wmo:42887:1,2014-06-02T03:40:00Z,28.1910,-88.4960,48.2,3.2,118.0,99.0,'11111222,11111222,11144222' 
ADCP,ioos:station:wmo:42887:1,2014-06-02T04:00:00Z,28.1910,-88.4960,48.2,3.1,118.0,99.0,'11111222,11111222,11144222' 
ADCP,ioos:station:wmo:42887:1,2014-06-02T04:20:00Z,28.1910,-88.4960,48.2,3.1,112.0,99.0,'11111222,11111222,11144222' 
ADCP,ioos:station:wmo:42887:1,2014-06-02T04:40:00Z,28.1910,-88.4960,48.2,3.9,111.0,99.0,'11111222,11111222,11144222' 
ADCP,ioos:station:wmo:42887:1,2014-06-02T05:00:00Z,28.1910,-88.4960,48.2,4.2,109.0,99.0,'11111222,11111222,11144222' 
ADCP,ioos:station:wmo:42887:1,2014-06-02T05:20:00Z,28.1910,-88.4960,48.2,3.3,109.0,99.0,'11111222,11111222,11144222' 
ADCP,ioos:station:wmo:42887:1,2014-06-02T05:40:00Z,28.1910,-88.4960,48.2,3.5,109.0,99.0,'11111222,11111222,11144222' 
ADCP,ioos:station:wmo:42887:1,2014-06-02T06:00:00Z,28.1910,-88.4960,48.2,4.1,109.0,99.0,'11111222,11111222,11144222' 
ADCP,ioos:station:wmo:42887:1,2014-06-02T06:20:00Z,28.1910,-88.4960,48.2,4.1,109.0,99.0,'11111222,11111222,11144222' 
ADCP,ioos:station:wmo:42887:1,2014-06-02T06:40:00Z,28.1910,-88.4960,48.2,4.2,108.0,99.0,'11111222,11111222,11144222' 
ADCP,ioos:station:wmo:42887:1,2014-06-02T07:00:00Z,28.1910,-88.4960,48.2,4.3,108.0,99.0,'11111222,11111222,11144222' 
ADCP,ioos:station:wmo:42887:1,2014-06-02T07:20:00Z,28.1910,-88.4960,48.2,3.9,109.0,99.0,'11111222,11111222,11144222' 
ADCP,ioos:station:wmo:42887:1,2014-06-02T07:40:00Z,28.1910,-88.4960,48.2,4.1,108.0,99.0,'11111222,11111222,11144222' 
ADCP,ioos:station:wmo:42887:1,2014-06-02T08:00:00Z,28.1910,-88.4960,48.2,3.8,108.0,99.0,'11111222,11111222,11144222' 
ADCP,ioos:station:wmo:42887:1,2014-06-02T08:20:00Z,28.1910,-88.4960,48.2,3.7,108.0,99.0,'11111222,11111222,11144222' 
ADCP,ioos:station:wmo:42887:1,2014-06-02T08:40:00Z,28.1910,-88.4960,48.2,3.0,108.0,99.0,'11111222,11111222,11144222' 
ADCP,ioos:station:wmo:42887:1,2014-06-02T09:00:00Z,28.1910,-88.4960,48.2,2.9,108.0,99.0,'11111222,11111222,11144222' 
ADCP,ioos:station:wmo:42887:1,2014-06-02T09:20:00Z,28.1910,-88.4960,48.2,2.5,108.0,99.0,'11111222,11111222,11144222' 
ADCP,ioos:station:wmo:42887:1,2014-06-02T09:40:00Z,28.1910,-88.4960,48.2,6.0,123.0,99.0,'11111222,11111222,11144222' 
ADCP,ioos:station:wmo:42887:1,2014-06-02T10:00:00Z,28.1910,-88.4960,48.2,1.6,124.0,99.0,'11111222,11111222,11144222' 
ADCP,ioos:station:wmo:42887:1,2014-06-02T10:20:00Z,28.1910,-88.4960,48.2,3.8,149.0,99.0,'11111222,11111222,11144222' 
ADCP,ioos:station:wmo:42887:1,2014-06-02T10:40:00Z,28.1910,-88.4960,48.2,4.4,106.0,99.0,'11111222,11111222,11144222' 
ADCP,ioos:station:wmo:42887:1,2014-06-02T11:00:00Z,28.1910,-88.4960,48.2,3.9,100.0,99.0,'11111222,11111222,11144222' 
ADCP,ioos:station:wmo:42887:1,2014-06-02T11:20:00Z,28.1910,-88.4960,48.2,3.0,99.0,99.0,'11111222,11111222,11144222' 
ADCP,ioos:station:wmo:42887:1,2014-06-02T11:40:00Z,28.1910,-88.4960,48.2,2.3,98.0,99.0,'11111222,11111222,11144222' 
ADCP,ioos:station:wmo:42887:1,2014-06-02T12:00:00Z,28.1910,-88.4960,48.2,3.7,98.0,99.0,'11111222,11111222,11144222' 
ADCP,ioos:station:wmo:42887:1,2014-06-02T12:20:00Z,28.1910,-88.4960,48.2,6.8,101.0,99.0,'11111222,11111222,11144222' 
ADCP,ioos:station:wmo:42887:1,2014-06-02T12:40:00Z,28.1910,-88.4960,48.2,4.8,87.0,99.0,'11111222,11111222,11144222' 
ADCP,ioos:station:wmo:42887:1,2014-06-02T13:00:00Z,28.1910,-88.4960,48.2,1.1,87.0,99.0,'11111222,11111222,11144222' 
ADCP,ioos:station:wmo:42887:1,2014-06-02T13:20:00Z,28.1910,-88.4960,48.2,2.5,87.0,99.0,'11111222,11111222,11144222' 
ADCP,ioos:station:wmo:42887:1,2014-06-02T13:40:00Z,28.1910,-88.4960,48.2,2.5,87.0,99.0,'11111222,11111222,11144222' 
ADCP,ioos:station:wmo:42887:1,2014-06-02T14:00:00Z,28.1910,-88.4960,48.2,2.2,87.0,99.0,'11111222,11111222,11144222' 
ADCP,ioos:station:wmo:42887:1,2014-06-02T14:20:00Z,28.1910,-88.4960,48.2,2.1,87.0,99.0,'11111222,11111222,11144222' 
ADCP,ioos:station:wmo:42887:1,2014-06-02T14:40:00Z,28.1910,-88.4960,48.2,0.5,87.0,99.0,'11111222,11111222,11144222' 
ADCP,ioos:station:wmo:42887:1,2014-06-02T15:00:00Z,28.1910,-88.4960,48.2,2.8,87.0,99.0,'11111222,11111222,11144222' 
ADCP,ioos:station:wmo:42887:1,2014-06-02T15:20:00Z,28.1910,-88.4960,48.2,2.4,87.0,99.0,'11111222,11111222,11144222' 
ADCP,ioos:station:wmo:42887:1,2014-06-02T15:40:00Z,28.1910,-88.4960,48.2,4.5,110.0,99.0,'11111222,11111222,11144222' 
ADCP,ioos:station:wmo:42887:1,2014-06-02T16:00:00Z,28.1910,-88.4960,48.2,5.5,141.0,99.0,'11111222,11111222,11144222' 
ADCP,ioos:station:wmo:42887:1,2014-06-02T16:20:00Z,28.1910,-88.4960,48.2,4.8,138.0,99.0,'11111222,11111222,11144222' 
ADCP,ioos:station:wmo:42887:1,2014-06-02T16:40:00Z,28.1910,-88.4960,48.2,5.0,139.0,99.0,'11111222,11111222,11144222' 
ADCP,ioos:station:wmo:42887:1,2014-06-02T17:00:00Z,28.1910,-88.4960,48.2,3.1,141.0,99.0,'11111222,11111222,11144222' 
ADCP,ioos:station:wmo:42887:1,2014-06-02T17:20:00Z,28.1910,-88.4960,48.2,2.2,141.0,99.0,'11111222,11111222,11144222' 
ADCP,ioos:station:wmo:42887:1,2014-06-02T17:40:00Z,28.1910,-88.4960,48.2,2.1,133.0,99.0,'11111222,11111222,11144222' 
ADCP,ioos:station:wmo:42887:1,2014-06-02T18:00:00Z,28.1910,-88.4960,48.2,1.5,132.0,99.0,'11111222,11111222,11144222' 
ADCP,ioos:station:wmo:42887:1,2014-06-02T18:20:00Z,28.1910,-88.4960,48.2,1.4,133.0,99.0,'11111222,11111222,11144222' 
ADCP,ioos:station:wmo:42887:1,2014-06-02T18:40:00Z,28.1910,-88.4960,48.2,1.0,132.0,99.0,'11111222,11111222,11144222' 
ADCP,ioos:station:wmo:42887:1,2014-06-02T19:00:00Z,28.1910,-88.4960,48.2,1.1,132.0,99.0,'11111222,11111222,11144222' 
ADCP,ioos:station:wmo:42887:1,2014-06-02T19:20:00Z,28.1910,-88.4960,48.2,2.0,131.0,99.0,'11111222,11111222,11144222' 
ADCP,ioos:station:wmo:42887:1,2014-06-02T19:40:00Z,28.1910,-88.4960,48.2,3.0,131.0,99.0,'11111222,11111222,11144222' 
ADCP,ioos:station:wmo:42887:1,2014-06-02T20:00:00Z,28.1910,-88.4960,48.2,2.9,132.0,99.0,'11111222,11111222,11144222' 
ADCP,ioos:station:wmo:42887:1,2014-06-02T20:20:00Z,28.1910,-88.4960,48.2,3.3,132.0,99.0,'11111222,11111222,11144222' 
ADCP,ioos:station:wmo:42887:1,2014-06-02T20:40:00Z,28.1910,-88.4960,48.2,4.0,42.0,99.0,'11111222,11111222,11144222' 
ADCP,ioos:station:wmo:42887:1,2014-06-02T21:00:00Z,28.1910,-88.4960,48.2,3.9,46.0,99.0,'11111222,11111222,11144222' 
ADCP,ioos:station:wmo:42887:1,2014-06-02T21:20:00Z,28.1910,-88.4960,48.2,2.4,53.0,99.0,'11111222,11111222,11144222' 
ADCP,ioos:station:wmo:42887:1,2014-06-02T21:40:00Z,28.1910,-88.4960,48.2,2.0,56.0,99.0,'11111222,11111222,11144222' 
ADCP,ioos:station:wmo:42887:1,2014-06-02T22:00:00Z,28.1910,-88.4960,48.2,3.2,66.0,99.0,'11111222,11111222,11144222' 
ADCP,ioos:station:wmo:42887:1,2014-06-02T22:20:00Z,28.1910,-88.4960,48.2,5.1,85.0,99.0,'11111222,11111222,11144222' 
ADCP,ioos:station:wmo:42887:1,2014-06-02T22:40:00Z,28.1910,-88.4960,48.2,6.1,96.0,99.0,'11111222,11111222,11144222' 
ADCP,ioos:station:wmo:42887:1,2014-06-02T23:00:00Z,28.1910,-88.4960,48.2,5.3,105.0,99.0,'11111222,11111222,11144222' 
ADCP,ioos:station:wmo:42887:1,2014-06-02T23:20:00Z,28.1910,-88.4960,48.2,4.6,105.0,99.0,'11111222,11111222,11144222' 
ADCP,ioos:station:wmo:42887:1,2014-06-02T23:40:00Z,28.1910,-88.4960,48.2,5.4,119.0,99.0,'11111222,11111222,11144222' 
ADCP,ioos:station:wmo:42887:1,2014-06-03T00:00:00Z,28.1910,-88.4960,48.2,6.1,120.0,99.0,'11111222,11111222,11144222' 
ADCP,ioos:station:wmo:42887:1,2014-06-03T00:20:00Z,28.1910,-88.4960,48.2,3.6,119.0,99.0,'11111222,11111222,11144222' 
ADCP,ioos:station:wmo:42887:1,2014-06-03T00:40:00Z,28.1910,-88.4960,48.2,4.4,113.0,99.0,'11111222,11111222,11144222' 
ADCP,ioos:station:wmo:42887:1,2014-06-03T01:00:00Z,28.1910,-88.4960,48.2,4.5,110.0,99.0,'11111222,11111222,11144222' 
ADCP,ioos:station:wmo:42887:1,2014-06-03T01:20:00Z,28.1910,-88.4960,48.2,2.6,108.0,99.0,'11111222,11111222,11144222' 
ADCP,ioos:station:wmo:42887:1,2014-06-03T01:40:00Z,28.1910,-88.4960,48.2,3.3,107.0,99.0,'11111222,11111222,11144222' 
ADCP,ioos:station:wmo:42887:1,2014-06-03T02:00:00Z,28.1910,-88.4960,48.2,3.8,110.0,99.0,'11111222,11111222,11144222' 
ADCP,ioos:station:wmo:42887:1,2014-06-03T02:20:00Z,28.1910,-88.4960,48.2,6.3,106.0,99.0,'11111222,11111222,11144222' 
ADCP,ioos:station:wmo:42887:1,2014-06-03T02:40:00Z,28.1910,-88.4960,48.2,6.0,104.0,99.0,'11111222,11111222,11144222' 
ADCP,ioos:station:wmo:42887:1,2014-06-03T03:00:00Z,28.1910,-88.4960,48.2,6.3,105.0,99.0,'11111222,11111222,11144222' 
ADCP,ioos:station:wmo:42887:1,2014-06-03T03:20:00Z,28.1910,-88.4960,48.2,4.1,104.0,99.0,'11111222,11111222,11144222' 
ADCP,ioos:station:wmo:42887:1,2014-06-03T03:40:00Z,28.1910,-88.4960,48.2,4.0,104.0,99.0,'11111222,11111222,11144222' 
ADCP,ioos:station:wmo:42887:1,2014-06-03T04:00:00Z,28.1910,-88.4960,48.2,4.5,106.0,99.0,'11111222,11111222,11144222' 
ADCP,ioos:station:wmo:42887:1,2014-06-03T04:20:00Z,28.1910,-88.4960,48.2,4.1,106.0,99.0,'11111222,11111222,11144222' 
ADCP,ioos:station:wmo:42887:1,2014-06-03T04:40:00Z,28.1910,-88.4960,48.2,3.6,106.0,99.0,'11111222,11111222,11144222' 
ADCP,ioos:station:wmo:42887:1,2014-06-03T05:00:00Z,28.1910,-88.4960,48.2,3.1,106.0,99.0,'11111222,11111222,11144222' 
ADCP,ioos:station:wmo:42887:1,2014-06-03T05:20:00Z,28.1910,-88.4960,48.2,2.7,106.0,99.0,'11111222,11111222,11144222' 
ADCP,ioos:station:wmo:42887:1,2014-06-03T05:40:00Z,28.1910,-88.4960,48.2,3.7,96.0,99.0,'11111222,11111222,11144222' 
ADCP,ioos:station:wmo:42887:1,2014-06-03T06:00:00Z,28.1910,-88.4960,48.2,3.5,91.0,99.0,'11111222,11111222,11144222' 
ADCP,ioos:station:wmo:42887:1,2014-06-03T06:20:00Z,28.1910,-88.4960,48.2,3.3,109.0,99.0,'11111222,11111222,11144222' 
ADCP,ioos:station:wmo:42887:1,2014-06-03T06:40:00Z,28.1910,-88.4960,48.2,2.9,101.0,99.0,'11111222,11111222,11144222' 
ADCP,ioos:station:wmo:42887:1,2014-06-03T07:00:00Z,28.1910,-88.4960,48.2,2.5,109.0,99.0,'11111222,11111222,11144222' 
ADCP,ioos:station:wmo:42887:1,2014-06-03T07:20:00Z,28.1910,-88.4960,48.2,3.4,107.0,99.0,'11111222,11111222,11144222' 
ADCP,ioos:station:wmo:42887:1,2014-06-03T07:40:00Z,28.1910,-88.4960,48.2,2.4,101.0,99.0,'11111222,11111222,11144222' 
ADCP,ioos:station:wmo:42887:1,2014-06-03T08:00:00Z,28.1910,-88.4960,48.2,2.3,97.0,99.0,'11111222,11111222,11144222' 
ADCP,ioos:station:wmo:42887:1,2014-06-03T08:20:00Z,28.1910,-88.4960,48.2,2.7,94.0,99.0,'11111222,11111222,11144222' 
ADCP,ioos:station:wmo:42887:1,2014-06-03T08:40:00Z,28.1910,-88.4960,48.2,2.8,87.0,99.0,'11111222,11111222,11144222' 
ADCP,ioos:station:wmo:42887:1,2014-06-03T09:00:00Z,28.1910,-88.4960,48.2,2.2,96.0,99.0,'11111222,11111222,11144222' 
ADCP,ioos:station:wmo:42887:1,2014-06-03T09:20:00Z,28.1910,-88.4960,48.2,2.3,87.0,99.0,'11111222,11111222,11144222' 
ADCP,ioos:station:wmo:42887:1,2014-06-03T09:40:00Z,28.1910,-88.4960,48.2,1.4,83.0,99.0,'11111222,11111222,11144222' 
ADCP,ioos:station:wmo:42887:1,2014-06-03T10:00:00Z,28.1910,-88.4960,48.2,1.8,95.0,99.0,'11111222,11111222,11144222' 
ADCP,ioos:station:wmo:42887:1,2014-06-03T10:20:00Z,28.1910,-88.4960,48.2,2.3,77.0,99.0,'11111222,11111222,11144222' 
ADCP,ioos:station:wmo:42887:1,2014-06-03T10:40:00Z,28.1910,-88.4960,48.2,2.5,80.0,99.0,'11111222,11111222,11144222' 
ADCP,ioos:station:wmo:42887:1,2014-06-03T11:00:00Z,28.1910,-88.4960,48.2,2.8,70.0,99.0,'11111222,11111222,11144222' 
ADCP,ioos:station:wmo:42887:1,2014-06-03T11:20:00Z,28.1910,-88.4960,48.2,2.9,71.0,99.0,'11111222,11111222,11144222' 
ADCP,ioos:station:wmo:42887:1,2014-06-03T11:40:00Z,28.1910,-88.4960,48.2,2.4,66.0,99.0,'11111222,11111222,11144222' 
ADCP,ioos:station:wmo:42887:1,2014-06-03T12:00:00Z,28.1910,-88.4960,48.2,2.4,71.0,99.0,'11111222,11111222,11144222' 
ADCP,ioos:station:wmo:42887:1,2014-06-03T12:20:00Z,28.1910,-88.4960,48.2,2.5,63.0,99.0,'11111222,11111222,11144222' 
ADCP,ioos:station:wmo:42887:1,2014-06-03T12:40:00Z,28.1910,-88.4960,48.2,3.2,62.0,99.0,'11111222,11111222,11144222' 
ADCP,ioos:station:wmo:42887:1,2014-06-03T13:00:00Z,28.1910,-88.4960,48.2,3.0,77.0,99.0,'11111222,11111222,11144222' 
ADCP,ioos:station:wmo:42887:1,2014-06-03T13:20:00Z,28.1910,-88.4960,48.2,3.9,77.0,99.0,'11111222,11111222,11144222' 
ADCP,ioos:station:wmo:42887:1,2014-06-03T13:40:00Z,28.1910,-88.4960,48.2,3.7,69.0,99.0,'11111222,11111222,11144222' 
ADCP,ioos:station:wmo:42887:1,2014-06-03T14:00:00Z,28.1910,-88.4960,48.2,2.5,78.0,99.0,'11111222,11111222,11144222' 
ADCP,ioos:station:wmo:42887:1,2014-06-03T14:20:00Z,28.1910,-88.4960,48.2,2.4,72.0,99.0,'11111222,11111222,11144222' 
ADCP,ioos:station:wmo:42887:1,2014-06-03T14:40:00Z,28.1910,-88.4960,48.2,2.5,97.0,99.0,'11111222,11111222,11144222' 
ADCP,ioos:station:wmo:42887:1,2014-06-03T15:00:00Z,28.1910,-88.4960,48.2,3.4,94.0,99.0,'11111222,11111222,11144222' 
ADCP,ioos:station:wmo:42887:1,2014-06-03T15:20:00Z,28.1910,-88.4960,48.2,2.9,90.0,99.0,'11111222,11111222,11144222' 
ADCP,ioos:station:wmo:42887:1,2014-06-03T15:40:00Z,28.1910,-88.4960,48.2,2.6,81.0,99.0,'11111222,11111222,11144222' 
ADCP,ioos:station:wmo:42887:1,2014-06-03T16:00:00Z,28.1910,-88.4960,48.2,3.3,80.0,99.0,'11111222,11111222,11144222' 
ADCP,ioos:station:wmo:42887:1,2014-06-03T16:20:00Z,28.1910,-88.4960,48.2,3.5,93.0,99.0,'11111222,11111222,11144222' 
ADCP,ioos:station:wmo:42887:1,2014-06-03T16:40:00Z,28.1910,-88.4960,48.2,2.1,99.0,99.0,'11111222,11111222,11144222' 
ADCP,ioos:station:wmo:42887:1,2014-06-03T17:00:00Z,28.1910,-88.4960,48.2,2.9,86.0,99.0,'11111222,11111222,11144222' 
ADCP,ioos:station:wmo:42887:1,2014-06-03T17:20:00Z,28.1910,-88.4960,48.2,3.6,80.0,99.0,'11111222,11111222,11144222' 
ADCP,ioos:station:wmo:42887:1,2014-06-03T17:40:00Z,28.1910,-88.4960,48.2,4.2,85.0,99.0,'11111222,11111222,11144222' 
ADCP,ioos:station:wmo:42887:1,2014-06-03T18:00:00Z,28.1910,-88.4960,48.2,3.4,94.0,99.0,'11111222,11111222,11144222' 
ADCP,ioos:station:wmo:42887:1,2014-06-03T18:20:00Z,28.1910,-88.4960,48.2,4.0,83.0,99.0,'11111222,11111222,11144222' 
ADCP,ioos:station:wmo:42887:1,2014-06-03T18:40:00Z,28.1910,-88.4960,48.2,4.8,87.0,99.0,'11111222,11111222,11144222' 
ADCP,ioos:station:wmo:42887:1,2014-06-03T19:00:00Z,28.1910,-88.4960,48.2,5.9,84.0,99.0,'11111222,11111222,11144222' 
ADCP,ioos:station:wmo:42887:1,2014-06-03T19:20:00Z,28.1910,-88.4960,48.2,6.0,87.0,99.0,'11111222,11111222,11144222' 